When you browse on this site, cookies collect data to enhance your experience and personalize the content and advertising you see.
Visit our Privacy Policy to learn more. By continuing to use the site, you agree to this use of cookies and data.
  • In Sweden
  • List of Countries
  • For 7 days
  • Water Temperature
  • Weather Map
  • Weather Widgets
  • user-avatar
    Login

    Hourly Weather Wagadugu

    Today, 3 April, Friday

    Time Temperature Precipitation Wind Pressure Humidity
    00:00 +34°C° 0 mm 2 mps 730 mmHg 12%
    01:00 +32°C° 0 mm 2 mps 729 mmHg 13%
    02:00 +31°C° 0 mm 2 mps 729 mmHg 13%
    03:00 +30°C° 0 mm 2 mps 729 mmHg 14%
    04:00 +29°C° 0 mm 2 mps 729 mmHg 15%
    05:00 +28°C° 0 mm 1 mps 729 mmHg 17%
    06:00 +24°C° 0 mm 0 mps 729 mmHg 18%
    07:00 +30°C° 0 mm 1 mps 730 mmHg 15%
    08:00 +33°C° 0 mm 1 mps 731 mmHg 11%
    09:00 +37°C° 0 mm 1 mps 731 mmHg 8%
    10:00 +40°C° 0 mm 1 mps 731 mmHg 7%
    11:00 +42°C° 0 mm 2 mps 731 mmHg 6%
    12:00 +45°C° 0 mm 2 mps 730 mmHg 5%
    13:00 +46°C° 0 mm 2 mps 729 mmHg 5%
    14:00 +46°C° 0 mm 2 mps 728 mmHg 5%
    15:00 +47°C° 0 mm 2 mps 728 mmHg 5%
    16:00 +44°C° 0 mm 1 mps 727 mmHg 6%
    17:00 +41°C° 0 mm 1 mps 727 mmHg 8%
    18:00 +39°C° 0 mm 1 mps 727 mmHg 9%
    19:00 +36°C° 0 mm 1 mps 727 mmHg 10%
    20:00 +35°C° 0 mm 1 mps 728 mmHg 11%
    21:00 +33°C° 0 mm 1 mps 728 mmHg 11%
    22:00 +33°C° 0 mm 1 mps 728 mmHg 12%
    23:00 +32°C° 0 mm 1 mps 729 mmHg 13%

    Tomorrow, 4 April, Saturday

    Time Temperature Precipitation Wind Pressure Humidity
    00:00 +32°C° 0 mm 2 mps 729 mmHg 14%
    01:00 +32°C° 0 mm 1 mps 728 mmHg 13%
    02:00 +31°C° 0 mm 1 mps 728 mmHg 12%
    03:00 +31°C° 0 mm 1 mps 728 mmHg 11%
    04:00 +30°C° 0 mm 1 mps 728 mmHg 13%
    05:00 +28°C° 0 mm 1 mps 728 mmHg 14%
    06:00 +27°C° 0 mm 1 mps 729 mmHg 16%
    07:00 +31°C° 0 mm 2 mps 730 mmHg 15%
    08:00 +35°C° 0 mm 3 mps 731 mmHg 15%
    09:00 +40°C° 0 mm 4 mps 732 mmHg 15%
    10:00 +42°C° 0 mm 3 mps 731 mmHg 13%
    11:00 +42°C° 0 mm 2 mps 731 mmHg 10%
    12:00 +44°C° 0 mm 1 mps 731 mmHg 8%
    13:00 +45°C° 0 mm 1 mps 730 mmHg 7%
    14:00 +45°C° 0 mm 1 mps 729 mmHg 7%
    15:00 +46°C° 0 mm 1 mps 728 mmHg 6%
    16:00 +44°C° 0 mm 1 mps 728 mmHg 6%
    17:00 +42°C° 0 mm 1 mps 728 mmHg 7%
    18:00 +40°C° 0 mm 2 mps 728 mmHg 7%
    19:00 +39°C° 0 mm 2 mps 728 mmHg 7%
    20:00 +37°C° 0 mm 2 mps 729 mmHg 8%
    21:00 +36°C° 0 mm 2 mps 729 mmHg 8%
    22:00 +35°C° 0 mm 2 mps 729 mmHg 11%
    23:00 +34°C° 0 mm 2 mps 729 mmHg 15%

    Day after tomorrow, 5 April, Sunday

    Time Temperature Precipitation Wind Pressure Humidity
    00:00 +32°C° 0 mm 2 mps 730 mmHg 18%
    01:00 +33°C° 0 mm 3 mps 729 mmHg 23%
    02:00 +33°C° 0 mm 3 mps 729 mmHg 28%
    03:00 +33°C° 0 mm 4 mps 729 mmHg 33%
    04:00 +32°C° 0 mm 4 mps 730 mmHg 38%
    05:00 +31°C° 0 mm 3 mps 730 mmHg 43%
    06:00 +30°C° 0 mm 3 mps 731 mmHg 47%
    07:00 +33°C° 0 mm 4 mps 731 mmHg 47%
    08:00 +35°C° 0 mm 5 mps 732 mmHg 47%
    09:00 +38°C° 0 mm 6 mps 733 mmHg 47%
    10:00 +40°C° 0 mm 5 mps 732 mmHg 39%
    11:00 +42°C° 0 mm 4 mps 732 mmHg 30%
    12:00 +44°C° 0 mm 4 mps 731 mmHg 22%
    13:00 +45°C° 0 mm 3 mps 731 mmHg 19%
    14:00 +45°C° 0 mm 2 mps 730 mmHg 16%
    15:00 +45°C° 0 mm 1 mps 729 mmHg 13%
    16:00 +44°C° 0 mm 1 mps 729 mmHg 14%
    17:00 +43°C° 0 mm 1 mps 728 mmHg 15%
    18:00 +41°C° 0 mm 1 mps 728 mmHg 16%
    19:00 +40°C° 0 mm 1 mps 729 mmHg 18%
    20:00 +37°C° 0 mm 1 mps 729 mmHg 19%
    21:00 +35°C° 0 mm 1 mps 730 mmHg 21%
    22:00 +35°C° 0 mm 1 mps 730 mmHg 22%
    23:00 +35°C° 0 mm 1 mps 730 mmHg 23%

    6 April, Monday

    Time Temperature Precipitation Wind Pressure Humidity
    00:00 +35°C° 0 mm 1 mps 729 mmHg 24%
    01:00 +35°C° 0 mm 1 mps 729 mmHg 23%
    02:00 +35°C° 0 mm 1 mps 729 mmHg 23%
    03:00 +36°C° 0 mm 2 mps 729 mmHg 23%
    04:00 +34°C° 0 mm 1 mps 729 mmHg 24%
    05:00 +34°C° 0 mm 1 mps 729 mmHg 24%
    06:00 +33°C° 0 mm 1 mps 730 mmHg 25%
    07:00 +35°C° 0 mm 1 mps 730 mmHg 24%
    08:00 +37°C° 0 mm 1 mps 731 mmHg 23%
    09:00 +40°C° 0 mm 2 mps 732 mmHg 21%
    10:00 +41°C° 0 mm 2 mps 732 mmHg 18%
    11:00 +43°C° 0 mm 2 mps 731 mmHg 14%
    12:00 +46°C° 0 mm 2 mps 731 mmHg 10%
    13:00 +46°C° 0 mm 2 mps 730 mmHg 9%
    14:00 +47°C° 0 mm 3 mps 729 mmHg 7%
    15:00 +47°C° 0 mm 3 mps 729 mmHg 6%
    16:00 +46°C° 0 mm 3 mps 728 mmHg 7%
    17:00 +45°C° 0 mm 3 mps 728 mmHg 8%
    18:00 +42°C° 0 mm 2 mps 728 mmHg 8%
    19:00 +40°C° 0 mm 2 mps 728 mmHg 9%
    20:00 +38°C° 0 mm 2 mps 729 mmHg 10%
    21:00 +36°C° 0 mm 2 mps 729 mmHg 11%
    22:00 +35°C° 0 mm 3 mps 729 mmHg 19%
    23:00 +35°C° 0 mm 4 mps 730 mmHg 27%

    7 April, Tuesday

    Time Temperature Precipitation Wind Pressure Humidity
    00:00 +34°C° 0 mm 5 mps 730 mmHg 35%
    01:00 +33°C° 0 mm 4 mps 730 mmHg 40%
    02:00 +32°C° 0 mm 4 mps 730 mmHg 44%
    03:00 +30°C° 0 mm 4 mps 730 mmHg 49%
    04:00 +30°C° 0 mm 3 mps 730 mmHg 51%
    05:00 +30°C° 0 mm 3 mps 730 mmHg 53%
    06:00 +30°C° 0 mm 3 mps 731 mmHg 55%
    07:00 +32°C° 0 mm 4 mps 731 mmHg 50%
    08:00 +34°C° 0 mm 5 mps 732 mmHg 45%
    09:00 +36°C° 0 mm 5 mps 732 mmHg 40%
    10:00 +39°C° 0 mm 5 mps 732 mmHg 33%
    11:00 +41°C° 0 mm 5 mps 732 mmHg 26%
    12:00 +43°C° 0 mm 5 mps 731 mmHg 20%
    13:00 +44°C° 0 mm 4 mps 730 mmHg 18%
    14:00 +44°C° 0 mm 3 mps 730 mmHg 16%
    15:00 +44°C° 0 mm 3 mps 729 mmHg 15%
    16:00 +42°C° 0 mm 2 mps 729 mmHg 15%
    17:00 +41°C° 0 mm 1 mps 729 mmHg 15%
    18:00 +40°C° 0 mm 1 mps 729 mmHg 15%
    19:00 +39°C° 0 mm 1 mps 729 mmHg 14%
    20:00 +38°C° 0 mm 2 mps 729 mmHg 13%
    21:00 +36°C° 0 mm 2 mps 730 mmHg 12%
    22:00 +35°C° 0 mm 2 mps 730 mmHg 12%
    23:00 +34°C° 0 mm 2 mps 730 mmHg 13%

    8 April, Wednesday

    Time Temperature Precipitation Wind Pressure Humidity
    00:00 +32°C° 0 mm 2 mps 730 mmHg 13%
    01:00 +31°C° 0 mm 2 mps 729 mmHg 22%
    02:00 +31°C° 0 mm 2 mps 729 mmHg 32%
    03:00 +30°C° 0 mm 3 mps 729 mmHg 41%
    04:00 +30°C° 0 mm 3 mps 729 mmHg 45%
    05:00 +29°C° 0 mm 3 mps 730 mmHg 48%
    06:00 +29°C° 0 mm 3 mps 730 mmHg 52%
    07:00 +33°C° 0 mm 4 mps 731 mmHg 45%
    08:00 +35°C° 0 mm 4 mps 731 mmHg 38%
    09:00 +39°C° 0 mm 5 mps 732 mmHg 30%
    10:00 +40°C° 0 mm 4 mps 731 mmHg 23%
    11:00 +42°C° 0 mm 3 mps 731 mmHg 16%
    12:00 +43°C° 0 mm 2 mps 731 mmHg 9%
    13:00 +45°C° 0 mm 2 mps 730 mmHg 7%
    14:00 +45°C° 0 mm 3 mps 729 mmHg 6%
    15:00 +46°C° 0 mm 3 mps 728 mmHg 5%
    16:00 +44°C° 0 mm 3 mps 728 mmHg 5%
    17:00 +43°C° 0 mm 3 mps 727 mmHg 5%
    18:00 +40°C° 0 mm 3 mps 727 mmHg 6%
    19:00 +38°C° 0 mm 2 mps 728 mmHg 6%
    20:00 +36°C° 0 mm 2 mps 728 mmHg 7%
    21:00 +33°C° 0 mm 1 mps 729 mmHg 8%
    22:00 +34°C° 0 mm 2 mps 729 mmHg 9%
    23:00 +35°C° 0 mm 3 mps 730 mmHg 10%
    Show more